Location: Gunung Kajang
(2.4167°N, 113.7167°E)
Time: 15:56:34
(UTC+00:00)

Cosmos 1606 - Pass Details

Date: 29 May 2022
Orbit: 498 x 521 km, 82.5° (Epoch: 28 June)

Event Time Altitude Azimuth Distance (km) Brightness Sun altitude
Rises 21:20:24 0° 353° (N) 2,579 6.5 -13.5°
Reaches altitude 10° 21:22:31 10° 350° (N) 1,702 5.5 -13.0°
Maximum altitude 21:26:13 71° 267° (W) 535 2.5 -12.2°
Drops below altitude 10° 21:29:59 10° 182° (S) 1,722 5.1 -11.3°
Sets 21:32:07 0° 180° (S) 2,613 6.0 -10.8°
